Location: Rowland
(34.5359°N, 79.2929°W)
Time: 19:14:53
(UTC+00:00)

Transit 2A Rocket - Pass Details

Date: 12 October 2022
Orbit: 589 x 911 km, 66.7° (Epoch: 03 December)

Event Time Altitude Azimuth Distance (km) Brightness Sun altitude
Rises 19:31:30 0° 304° (WNW) 3,177 8.3 35.2°
Reaches altitude 10° 19:36:34 10° 261° (W) 2,353 8.5 34.5°
Maximum altitude 19:37:04 10° 255° (WSW) 2,353 8.6 34.4°
Drops below altitude 10° 19:37:35 10° 250° (WSW) 2,372 8.7 34.3°
Sets 19:42:58 0° 208° (SSW) 3,396 9.3 33.5°
